Location: Limoges
(45.8354°N, 1.2645°E)
Time: 17:43:23
(UTC+02:00)

Vanguard 2 Rocket - Pass Details

Date: 24 February 2024
Orbit: 555 x 3307 km, 32.9° (Epoch: 23 April)

Event Time Altitude Azimuth Distance (km) Brightness Sun altitude
Rises 19:57:56 0° 270° (W) 5,772 12.9 -15.4°
Reaches altitude 10° 20:01:35 10° 263° (W) 5,093 12.0 -16.0°
Maximum altitude 20:15:55 41° 201° (SSW) 4,000 10.2 -18.5°
Drops below altitude 10° 20:33:41 10° 141° (SE) 6,213 10.7 -21.6°
Enters shadow 20:34:54 - 139° (SE) 6,424 10.8 -21.8°
